User: anonymous   Login
Location: Robert Brownlee Observatory
(34.2308°N, 117.2089°W)
Time: 20:35:27
(UTC-07:00)
Language:

Cosmos 1943 - Orbit

View from above orbital plane
View from above orbital plane
View from above satellite
View from above satellite

Ground track
Ground track

The orbit data is extracted from the following two-line orbital elements,

1 19119U 88039A   16179.17572942 -.00000105  00000-0 -29682-4 0  9999
2 19119  71.0039 127.2925 0013533 243.3424 209.2938 14.15069705451874
Epoch (UTC): 27 June 2016 04:13:03
Eccentricity: 0.0013533
inclination: 71.0039°
perigee height: 832 km
apogee height: 852 km
right ascension of ascending node: 127.2925°
argument of perigee: 243.3424°
revolutions per day: 14.15069705
mean anomaly at epoch: 209.2938°
orbit number at epoch: 45187

The dashed part of the orbit path shows where the satellite is in the earth's shadow,  

DLR